Hourly Data Report for May 11, 2012

All times are specified in Local Standard Time (LST). Add 1 hour to adjust for Daylight Saving Time where and when it is observed.

GANDER INTL A
NEWFOUNDLAND

48°56'13.000" N
54°34'05.000" W
151.20 m
8401703
71803
YQX

Download Data

Hourly Data (May 2012)
Hourly Data Report for May 11, 2012
Temp Definition
°C
Dew Point Temp Definition
°C
Rel Hum Definition
%
Wind Dir Definition
10's deg

Wind Spd Definition
km/h
Visibility Definition
km
Stn Press Definition
kPa
Hmdx Definition


Wind Chill Definition


Weather Definition


TIME
00:30 Legend Double Dagger 12.0 9.4 84 17 28 10.0 99.72     LegendNANA
01:30 Legend Double Dagger 11.3 9.2 87 16 31 10.0 99.66     LegendNANA
02:30 Legend Double Dagger 11.4 9.5 88 16 31 10.0 99.62     Cloudy
03:30 Legend Double Dagger 11.4 9.7 89 17 31 10.0 99.59     LegendNANA
04:30 Legend Double Dagger 12.0 9.9 87 18 42 10.0 99.55     LegendNANA
05:30 Legend Double Dagger 12.1 10.0 87 18 37 10.0 99.54     Mostly Cloudy
06:30 Legend Double Dagger 13.1 10.5 84 17 41 10.0 99.50     LegendNANA
07:30 Legend Double Dagger 13.5 12.1 91 18 46 10.0 99.53     Rain Showers
08:30 Legend Double Dagger 14.1 12.3 89 18 40 10.0 99.55     Cloudy
09:30 Legend Double Dagger 14.9 12.6 86 18 42 10.0 99.57     LegendNANA
10:30 Legend Double Dagger 15.5 12.8 84 18 46 10.0 99.56     LegendNANA
11:30 Legend Double Dagger 15.9 13.4 85 20 30 10.0 99.60     Cloudy
12:30 Legend Double Dagger 16.3 13.8 85 18 30 10.0 99.61     LegendNANA
13:30 Legend Double Dagger 16.4 13.5 83 20 31 10.0 99.64     LegendNANA
14:30 Legend Double Dagger 16.6 13.6 82 20 39 10.0 99.65     Cloudy
15:30 Legend Double Dagger 17.3 13.5 78 19 28 10.0 99.66     LegendNANA
16:30 Legend Double Dagger 17.6 13.4 76 20 28 10.0 99.68     LegendNANA
17:30 Legend Double Dagger 17.6 13.4 76 19 24 10.0 99.75     Mostly Cloudy
18:30 Legend Double Dagger 15.9 13.1 83 19 30 10.0 99.82     LegendNANA
19:30 Legend Double Dagger 14.3 12.0 86 18 27 10.0 99.88     LegendNANA
20:30 Legend Double Dagger 13.8 11.7 87 19 20 10.0 99.97     Cloudy
21:30 Legend Double Dagger 13.1 11.7 91 18 20 10.0 99.96     LegendNANA
22:30 Legend Double Dagger 13.0 11.9 93 18 19 10.0 99.98     Rain Showers
23:30 Legend Double Dagger 12.6 11.8 95 19 23 10.0 100.03     Cloudy

Notes on Data Quality.

Legend

  • E = Estimated
  • M = Missing
  • NA = Not Available
  • ‡ = Partner data that is not subject to review by the National Climate Archives
Date modified: